Location: Ependes
(46.7430°N, 6.6086°E)
Time: 07:19:52
(UTC+00:00)

Daily predictions for brighter satellites

Satellite Brightness Start Highest point End
(mag) Time Altitude Azimuth Time Altitude Azimuth Time Altitude Azimuth
ATLAS 3B R/B 3.2 20:00:56 10° S 20:06:40 33° ESE 20:12:31 10° NE
IGS 5A 3.5 20:04:44 10° SSE 20:08:53 87° E 20:13:05 10° NNW
NOSS 3-2 (C) 4.3 20:04:36 10° WSW 20:10:13 57° NW 20:16:46 10° NE
Cosmos 1461 2.9 20:06:43 10° NW 20:10:58 85° SW 20:15:00 10° SSE
ATLAS CENTAUR R/B 2.2 20:09:23 10° NNW 20:13:32 46° NE 20:17:56 10° ESE
Cosmos 2173 Rocket 4.3 20:10:13 10° N 20:16:33 59° ENE 20:22:48 10° SSE
SL-8 R/B 3.9 20:12:34 10° WNW 20:17:20 64° SSW 20:22:04 10° SE
Cosmos 1452 Rocket 3.8 20:13:59 10° SSW 20:19:16 75° WNW 20:24:35 10° NNE
SL-4 R/B 3.8 20:18:30 10° SSE 20:20:20 13° SE 20:22:08 10° ESE
Cosmos 2219 Rocket 3.0 20:17:54 10° SSE 20:22:47 30° ESE 20:27:41 10° NE
Cosmos 2333 Rocket 2.8 20:18:51 10° S 20:24:02 36° ESE 20:29:13 10° NE
FALCON 9 DEB 3.5 20:22:56 10° SSW 20:25:47 33° SE 20:28:39 10° ENE
Cosmos 1758 4.4 20:23:35 10° NNW 20:27:22 43° W 20:31:08 10° SSW
Cosmos 1850 Rocket 4.4 20:22:18 10° NNW 20:27:34 64° WSW 20:32:44 10° S
ERS-1 Rocket 3.7 20:24:16 10° SE 20:28:56 40° ENE 20:33:38 10° N
Cosmos 1025 Rocket 3.4 20:24:49 10° SSE 20:29:00 47° E 20:33:12 10° NNE
Lacrosse 5 rocket 0.9 20:25:47 10° SW 20:29:29 78° SE 20:33:05 10° NE
Cosmos 1844 3.7 20:24:55 10° NNW 20:30:32 82° ENE 20:36:02 11° SSE
Spot 2 Rocket 3.7 20:28:40 10° SSE 20:33:39 63° ENE 20:38:41 10° N
Cosmos 1725 Rocket 4.5 20:28:54 10° N 20:34:51 47° ENE 20:40:27 11° SSE
Cosmos 1727 Rocket 4.3 20:28:34 10° SSW 20:34:52 73° W 20:41:09 10° N
Cosmos 1331 Rocket 4.0 20:31:08 10° SSW 20:36:21 73° ESE 20:41:38 10° NNE
Cosmos 1900 4.3 20:34:31 10° NW 20:39:27 87° SW 20:43:50 13° SSE
DNEPR-1 R/B 3.7 20:35:30 10° NNW 20:39:42 63° NE 20:43:36 13° SE
FALCON 9 DEB 2.8 20:38:18 10° SW 20:41:22 63° SE 20:44:26 10° ENE
CENTAUR R/B 4.3 20:37:25 10° W 20:43:13 38° NNW 20:50:05 10° NE
KORONAS-FOTON 4.1 20:39:27 10° SSW 20:43:13 69° W 20:47:00 10° N
Cosmos 2237 Rocket 4.0 20:41:59 11° ESE 20:44:18 13° E 20:46:55 10° ENE
CARTOSAT-1 3.6 20:40:17 11° SSE 20:44:20 71° ENE 20:48:39 10° N
SL-14 R/B 3.8 20:41:31 11° SSE 20:45:14 44° E 20:49:04 10° NNE
Terra 2.6 20:41:19 12° SE 20:45:16 38° ENE 20:49:41 10° N
SPOT 1/Viking Rocket 3.7 20:41:12 10° S 20:46:19 73° WSW 20:51:29 10° NNW
Cosmos 2360 Rocket 2.4 20:41:16 10° SSW 20:46:55 75° WNW 20:52:35 10° NNE
Cosmos 1674 3.1 20:43:36 10° SSW 20:47:16 60° W 20:50:57 10° N
CZ-2C R/B 3.9 20:43:28 10° NNE 20:48:17 82° WNW 20:53:02 10° SSW
FALCON 9 DEB 2.8 20:46:16 10° SW 20:49:19 57° SE 20:52:23 10° ENE
Cosmos 2322 Rocket 3.5 20:45:46 10° SW 20:51:12 44° NW 20:56:41 10° NNE
SL-16 R/B 4.0 20:46:11 10° WSW 20:51:23 36° NW 20:56:36 10° NNE
Cosmos 1953 2.9 20:47:41 10° NNW 20:51:41 55° W 20:55:38 10° S
FALCON 9 DEB 2.7 20:48:48 10° SW 20:51:54 73° SSE 20:55:01 10° ENE
Meteor 2-11 Rocket 4.5 20:46:17 10° N 20:52:27 88° W 20:58:31 10° S
SPOT 5 3.1 20:48:16 13° SSE 20:52:43 63° ENE 20:57:29 10° N
USA 245 4.4 20:48:29 10° S 20:53:30 73° WSW 20:59:29 10° NNW
Cosmos 1975 Rocket 3.9 20:50:16 10° SSW 20:54:30 51° WNW 20:58:50 10° N
Meteor 1-24 Rocket 4.3 20:51:25 14° SSE 20:55:34 36° E 21:00:34 10° NNE
Cosmos 1802 Rocket 4.1 20:49:24 10° N 20:55:44 88° E 21:01:57 11° S
Cosmos 1459 Rocket 4.1 20:51:06 10° NNW 20:57:09 75° W 21:03:11 10° S
Cosmos 1302 Rocket 4.1 20:52:34 10° S 20:57:42 58° ESE 21:02:51 10° NNE
Cosmos 1300 2.8 21:00:00 10° N 21:03:46 59° E 21:06:20 19° SSE
Resurs 01 Rocket 3.6 21:01:59 10° SSW 21:05:36 24° W 21:09:13 10° NW
Cosmos 1340 2.6 21:07:28 11° S 21:11:08 88° WNW 21:14:56 10° N
Cosmos 2322 3.7 21:08:54 10° SSW 21:14:33 87° ESE 21:20:15 10° NNE
COSMOS 2428 2.7 21:10:36 10° SSW 21:16:16 64° ESE 21:21:58 10° NNE
Cosmos 2278 Rocket 2.9 21:11:13 10° NNW 21:16:39 44° NE 21:20:55 16° ESE
Cosmos 1844 Rocket 3.8 21:12:20 10° NW 21:17:33 37° WSW 21:22:30 11° S
NOSS 0 Rocket 4.5 21:17:59 16° SSE 21:22:22 39° ESE 21:28:05 10° NE
Cosmos 389 Rocket 3.3 21:19:36 10° N 21:22:48 35° ENE 21:24:17 23° ESE
Cosmos 1867 3.7 21:19:34 10° NW 21:25:05 77° NE 21:28:54 20° SE
Cosmos 968 Rocket 3.4 21:25:01 10° NNW 21:30:10 89° WSW 21:33:29 22° SSE
Cosmos 1626 3.9 21:30:55 10° SW 21:34:12 30° WNW 21:37:30 10° N
Cosmos 1486 Rocket 4.0 21:30:25 10° NNW 21:35:40 78° ENE 21:38:52 24° SSE
SJ 16-02 3.9 21:35:43 10° NE 21:36:46 11° NE 21:37:47 10° ENE
Cosmos 2123 Rocket 4.3 21:30:34 10° SSW 21:36:49 67° WNW 21:43:09 10° N
Cosmos 2061 Rocket 4.5 21:31:02 10° NNW 21:37:21 60° W 21:42:50 14° S
Meteor 2-10 Rocket 3.4 21:34:33 10° N 21:39:38 75° ENE 21:42:36 25° SSE
Cosmos 1606 Rocket 3.9 21:35:53 10° N 21:40:17 55° ENE 21:42:32 27° SE
Uosat 12 SS-18 rocket 4.1 21:36:35 10° SW 21:40:56 88° SE 21:46:01 10° NE
Cosmos 2233 Rocket 4.0 21:35:02 10° N 21:41:13 88° W 21:45:35 21° S
Cosmos 1992 Rocket 4.1 21:37:59 20° S 21:41:33 59° ESE 21:46:42 10° NNE
Cosmos 1943 Rocket 4.3 21:38:04 10° N 21:41:49 18° NE 21:45:34 10° E
ARIANE 5 R/B 4.0 21:38:34 12° SSW 21:42:11 32° W 21:46:15 10° NNW
Cosmos 1892 Rocket 4.4 21:43:59 26° SE 21:45:43 36° E 21:49:47 10° NNE
Cosmos 1346 Rocket 2.7 21:47:04 27° S 21:49:07 75° E 21:53:10 10° NNE
Cosmos 1447 Rocket 4.5 21:44:53 20° S 21:49:24 76° E 21:55:35 10° NNE
Cosmos 1354 Rocket 4.4 21:46:39 10° NNW 21:51:55 56° ENE 21:55:00 24° SE
ATLAS CENTAUR R/B 3.0 21:48:35 10° WNW 21:52:16 26° WSW 21:54:30 18° SSW
Cosmos 1980 3.9 21:51:14 23° S 21:54:36 52° ESE 22:00:08 10° NE
BREEZE-M DEB (TANK) 3.6 21:44:14 10° SW 21:55:55 50° SSE 21:59:29 10° E
ATLAS 3B R/B 3.2 21:50:31 10° SW 21:56:59 60° NW 22:03:44 10° NE
SL-4 R/B 1.9 21:55:18 10° SW 21:59:23 59° SSE 22:03:10 10° ENE
ALOS 2 4.2 21:57:54 16° ESE 22:00:09 24° ENE 22:03:42 10° N
FALCON 9 DEB 4.1 21:58:26 10° W 22:01:27 43° NNW 22:04:28 10° NE
Cosmos 2219 Rocket 3.2 22:01:03 10° SW 22:06:31 47° NW 22:12:01 10° NNE
ERS-1 Rocket 4.5 22:04:07 13° SSW 22:07:49 29° W 22:12:12 10° NW
Cosmos 2333 Rocket 3.5 22:02:50 10° SW 22:08:15 41° NW 22:13:40 10° NNE
Lacrosse 5 rocket 3.5 22:05:52 10° WNW 22:08:54 24° NNW 22:11:54 10° NE
Cosmos 1607 4.0 22:02:36 10° NW 22:09:05 87° NE 22:12:53 26° SE
Cosmos 1703 4.2 22:08:43 29° ESE 22:09:34 33° E 22:13:08 10° NNE
Cosmos 2228 3.4 22:07:40 10° NNW 22:12:00 57° W 22:14:06 28° SSW
Iridium 2 3.5 22:12:19 41° S 22:13:31 81° E 22:17:17 10° N
Meteor 2-1 Rocket 4.3 22:14:00 10° N 22:19:30 65° ENE 22:22:14 30° SSE
USA 215 3.4 22:13:38 10° ENE 22:20:01 53° SE 22:25:28 14° SSW
Terra 3.4 22:20:12 16° SW 22:23:06 27° W 22:27:10 10° NW
COBE Rocket 4.3 22:22:10 30° SE 22:24:28 55° ENE 22:29:16 10° N
SL-16 R/B 3.1 22:23:55 27° SE 22:25:32 31° ESE 22:30:28 10° NE
Cosmos 2237 Rocket 2.1 22:23:45 22° SSW 22:27:28 86° ESE 22:33:08 10° NNE
Cosmos 1455 2.2 22:25:07 10° NNW 22:28:56 70° W 22:29:59 44° SSW
Cosmos 1184 Rocket 2.6 22:29:49 65° S 22:30:14 88° ESE 22:33:30 10° NNE
Cosmos 1464 Rocket 4.0 22:24:38 10° N 22:31:03 84° E 22:34:26 30° SSE
Cosmos 1503 Rocket 4.3 22:30:22 10° NNW 22:35:38 58° WSW 22:37:58 32° S
Cosmos 2369 Rocket 4.1 22:31:32 10° N 22:36:08 24° NE 22:40:43 10° E
Cosmos 192 4.2 22:33:47 31° SSW 22:36:09 85° ESE 22:41:07 10° NNE
GEOS 3 Rocket 3.6 22:38:08 29° SE 22:40:59 88° NE 22:46:22 10° NW
ATLAS CENTAUR R/B 3.3 22:40:45 28° SSW 22:43:37 64° SE 22:55:37 10° NE
USA 267 3.5 22:47:36 10° ESE 22:54:05 69° NNE 23:00:36 10° NW
Okean 1-7 Rocket 3.6 22:54:15 39° SSW 22:55:50 76° W 23:00:17 10° N
Cosmos 1812 Rocket 4.1 22:53:46 10° N 22:58:00 49° ENE 22:59:21 36° SE
BREEZE-M DEB (TANK) 3.3 22:56:24 10° W 22:59:47 66° N 23:09:40 10° E
Cosmos 2278 Rocket 3.3 22:55:36 10° NW 23:00:35 33° WSW 23:02:45 25° SW
Cosmos 2058 Rocket 3.8 22:58:48 10° NNW 23:03:00 43° W 23:04:24 32° SW
Cosmos 2297 3.8 22:57:43 10° NNW 23:03:23 73° ENE 23:06:10 31° SE
Cosmos 2034 Rocket 4.0 23:00:58 10° NNW 23:07:09 76° W 23:10:01 34° S
NOSS 2-3 (C) 4.2 23:07:22 36° SE 23:07:33 36° ESE 23:11:49 10° NE
Thor Agena Rocket 4.2 23:03:10 10° NNE 23:08:08 42° E 23:09:46 33° SE
SAR-Lupe-2 3.8 23:05:47 10° NNE 23:09:19 53° E 23:09:33 52° ESE
SJ 16-02 1.3 23:11:46 10° NNW 23:16:10 75° ENE 23:17:28 44° SE
Cosmos 1174 4.4 23:14:18 35° SSW 23:16:42 74° ESE 23:21:24 10° NE
Cosmos 1777 Rocket 4.3 23:16:01 10° NNW 23:21:11 55° WSW 23:22:57 38° SSW
Meteor 1-11 4.2 23:19:57 38° S 23:22:12 76° E 23:27:47 10° NNE
Meteor 1-27 4.5 23:19:09 10° N 23:24:40 60° ENE 23:27:14 31° SE
GP-B 3.1 23:20:22 10° N 23:24:49 70° E 23:26:01 46° SSE
Cosmos 1825 Rocket 4.3 23:25:14 34° SE 23:26:21 41° E 23:30:31 10° NNE
Cosmos 1943 Rocket 2.1 23:20:53 10° NNW 23:26:25 85° ENE 23:28:53 35° SSE
Meteor 1-4 Rocket 2.9 23:23:07 10° NNW 23:26:27 45° W 23:26:36 44° WSW
Nimbus 7 Rocket 4.4 23:20:49 10° NNE 23:26:56 85° ESE 23:29:47 34° SSW
Cosmos 1892 3.5 23:30:16 35° ESE 23:30:50 37° E 23:34:27 10° NNE
MTI 3.8 23:29:28 10° N 23:32:27 64° WNW 23:32:27 64° WNW
ALOS 2 3.4 23:35:17 33° SW 23:36:18 38° W 23:40:24 10° NNW
Cosmos 1869 4.0 23:33:00 10° N 23:36:59 48° ENE 23:38:08 37° ESE
Tsikada Rocket 4.1 23:34:13 32° SSW 23:37:15 71° W 23:43:25 10° N
CZ-2D R/B 4.4 23:36:21 10° ENE 23:37:34 11° E 23:38:49 10° E
Cosmos 1943 4.3 23:36:45 25° SE 23:38:27 30° ESE 23:43:15 10° NE
SL-4 R/B 2.8 23:35:14 10° W 23:39:04 46° NNW 23:42:38 10° ENE
Cosmos 990 Rocket 4.4 23:35:01 10° NNW 23:40:09 58° ENE 23:42:50 27° SE
Lacrosse 4 Rocket 4.2 23:37:56 10° N 23:40:19 15° NE 23:42:40 10° ENE
USA 229 DEB 3.7 23:38:46 34° S 23:41:30 60° ESE 23:48:11 10° NE
USA 229 3.7 23:38:53 34° S 23:41:36 60° ESE 23:48:17 10° NE
EO 1 Del DPAF 4.1 23:38:48 10° NNE 23:42:13 34° E 23:42:38 33° ESE
NOSS 8 (F) 4.4 23:43:55 57° E 23:43:55 57° E 23:46:30 10° NE
Lacrosse 5 rocket 4.2 23:46:40 10° NW 23:49:00 16° N 23:51:19 10° NE
NOSS 3-1 (C) 3.2 23:46:44 29° SW 23:49:39 84° NW 23:56:01 10° NE
Cosmos 1953 Rocket 4.0 23:50:42 38° SE 23:51:51 49° E 23:56:08 10° NNE
SL-16 R/B 4.3 23:48:00 10° ESE 23:52:56 26° ENE 23:57:51 10° N
Cosmos 1408 2.8 23:53:09 51° SE 23:53:37 56° E 23:57:15 10° NNE
Cosmos 1825 3.2 23:54:28 30° ESE 23:55:09 33° E 23:58:33 10° NNE
